Schneifelwetter: Wetterstation Hallschlag, 537 m . NN
Wetterdaten: Samstag, 11.11.2006
Datum Zeit Temp. A. Temp. 2 Feuchte A. Luftdruck Regen Wind Richtung Richtung Sonnenschein Helligkeit T Regen Taupunkt Windchill
11.11.2006 00:00 2,1 C 1,2 C 85 % 1023 hPa 0,0 l/m 8,9 km/h (2 Bft) W22.5 275 0 min 0 lux 0,00 min -0,2 C -0,2 C
11.11.2006 00:15 2,0 C 1,1 C 85 % 1023 hPa 0,0 l/m 7,9 km/h (2 Bft) W22.5 270 0 min 0 lux 0,00 min -0,3 C 0,5 C
11.11.2006 00:30 1,9 C 1,1 C 85 % 1023 hPa 0,0 l/m 5,8 km/h (2 Bft) W22.5 270 0 min 0 lux 0,00 min -0,3 C 1,9 C
11.11.2006 00:45 1,8 C 1,0 C 86 % 1023 hPa 0,0 l/m 10,1 km/h (2 Bft) W22.5 270 0 min 0 lux 0,00 min -0,3 C -1,5 C
11.11.2006 01:00 1,8 C 1,1 C 87 % 1023 hPa 0,0 l/m 10,7 km/h (2 Bft) W-SW45 245 0 min 0 lux 0,00 min -0,1 C -2,0 C
11.11.2006 01:15 1,9 C 1,3 C 87 % 1022 hPa 0,0 l/m 19,9 km/h (4 Bft) SW45 235 0 min 0 lux 0,00 min -0,0 C -7,1 C
11.11.2006 01:30 2,1 C 1,5 C 87 % 1022 hPa 0,0 l/m 16,6 km/h (3 Bft) W-SW45 240 0 min 0 lux 0,00 min 0,2 C -5,3 C
11.11.2006 01:45 2,3 C 1,7 C 86 % 1021 hPa 0,0 l/m 21,1 km/h (4 Bft) SW45 225 0 min 0 lux 0,00 min 0,2 C -7,1 C
11.11.2006 02:00 2,4 C 1,9 C 86 % 1021 hPa 0,0 l/m 18,9 km/h (3 Bft) W-SW45 240 0 min 0 lux 0,00 min 0,3 C -6,0 C
11.11.2006 02:15 2,5 C 2,1 C 86 % 1021 hPa 0,0 l/m 22,1 km/h (4 Bft) W-SW45 250 0 min 0 lux 0,00 min 0,4 C -7,3 C
11.11.2006 02:30 2,5 C 2,2 C 86 % 1021 hPa 0,0 l/m 26,5 km/h (4 Bft) W-SW67.5 250 0 min 0 lux 0,00 min 0,4 C -8,8 C
11.11.2006 02:45 2,7 C 2,3 C 86 % 1020 hPa 0,0 l/m 28,6 km/h (4 Bft) W-SW45 240 0 min 0 lux 0,00 min 0,6 C -9,2 C
11.11.2006 03:00 2,8 C 2,6 C 86 % 1020 hPa 0,0 l/m 31,1 km/h (5 Bft) W-SW45 255 0 min 0 lux 0,00 min 0,7 C -9,8 C
11.11.2006 03:15 3,0 C 2,7 C 86 % 1020 hPa 0,0 l/m 29,1 km/h (5 Bft) W-SW67.5 250 0 min 0 lux 0,00 min 0,9 C -8,9 C
11.11.2006 03:30 2,9 C 2,6 C 86 % 1020 hPa 0,0 l/m 28,1 km/h (4 Bft) W-SW22.5 250 0 min 0 lux 0,00 min 0,8 C -8,8 C
11.11.2006 03:45 2,9 C 2,6 C 86 % 1019 hPa 0,0 l/m 25,1 km/h (4 Bft) SW45 230 0 min 0 lux 0,00 min 0,8 C -7,8 C
11.11.2006 04:00 2,8 C 2,5 C 86 % 1019 hPa 0,0 l/m 28,2 km/h (4 Bft) W-SW22.5 250 0 min 0 lux 0,00 min 0,7 C -8,9 C
11.11.2006 04:15 2,8 C 2,5 C 86 % 1019 hPa 0,0 l/m 28,6 km/h (4 Bft) W-SW45 250 0 min 0 lux 0,00 min 0,7 C -9,1 C
11.11.2006 04:30 2,6 C 2,4 C 86 % 1019 hPa 0,0 l/m 31,7 km/h (5 Bft) W22.5 260 0 min 0 lux 0,00 min 0,5 C -10,2 C
11.11.2006 04:45 2,5 C 2,4 C 87 % 1018 hPa 0,0 l/m 31,3 km/h (5 Bft) W-SW45 240 0 min 0 lux 0,00 min 0,6 C -10,2 C
11.11.2006 05:00 2,6 C 2,4 C 88 % 1018 hPa 0,0 l/m 31,8 km/h (5 Bft) SW45 235 0 min 0 lux 0,00 min 0,8 C -10,2 C
11.11.2006 05:15 2,6 C 2,4 C 88 % 1018 hPa 0,0 l/m 31,6 km/h (5 Bft) W-SW45 240 0 min 0 lux 0,00 min 0,8 C -10,2 C
11.11.2006 05:30 2,6 C 2,4 C 88 % 1018 hPa 0,0 l/m 29,0 km/h (5 Bft) W-SW45 250 0 min 0 lux 0,00 min 0,8 C -9,5 C
11.11.2006 05:45 2,6 C 2,4 C 88 % 1018 hPa 0,0 l/m 29,6 km/h (5 Bft) W-SW22.5 240 0 min 0 lux 0,00 min 0,8 C -9,6 C
11.11.2006 06:00 2,7 C 2,5 C 88 % 1017 hPa 0,0 l/m 25,5 km/h (4 Bft) W-SW45 250 0 min 0 lux 0,00 min 0,9 C -8,2 C
11.11.2006 06:15 2,7 C 2,5 C 88 % 1017 hPa 0,0 l/m 25,3 km/h (4 Bft) W-SW22.5 250 0 min 0 lux 0,00 min 0,9 C -8,2 C
11.11.2006 06:30 2,7 C 2,5 C 88 % 1017 hPa 0,0 l/m 27,6 km/h (4 Bft) W-SW45 250 0 min 0 lux 0,00 min 0,9 C -8,9 C
11.11.2006 06:45 2,7 C 2,5 C 88 % 1017 hPa 0,0 l/m 32,3 km/h (5 Bft) W-SW22.5 255 0 min 0 lux 0,00 min 0,9 C -10,2 C
11.11.2006 07:00 2,7 C 2,4 C 89 % 1017 hPa 0,3 l/m 26,0 km/h (4 Bft) W45 260 0 min 0 lux 15,00 min 1,1 C -8,4 C
11.11.2006 07:15 2,7 C 2,4 C 90 % 1017 hPa 0,3 l/m 27,5 km/h (4 Bft) W45 260 0 min 0 lux 15,00 min 1,2 C -8,9 C
11.11.2006 07:30 2,7 C 2,4 C 90 % 1017 hPa 0,9 l/m 22,5 km/h (4 Bft) W-SW45 255 0 min 44 lux 15,00 min 1,2 C -7,2 C
11.11.2006 07:45 2,7 C 2,5 C 90 % 1016 hPa 0,3 l/m 26,6 km/h (4 Bft) SW22.5 230 0 min 82 lux 15,00 min 1,2 C -8,6 C
11.11.2006 08:00 2,9 C 2,6 C 91 % 1016 hPa 0,9 l/m 26,8 km/h (4 Bft) SW45 230 0 min 205 lux 15,00 min 1,6 C -8,4 C
11.11.2006 08:15 3,0 C 2,7 C 91 % 1016 hPa 0,6 l/m 28,3 km/h (4 Bft) SW45 225 0 min 378 lux 15,00 min 1,7 C -8,7 C
11.11.2006 08:30 3,1 C 2,8 C 92 % 1016 hPa 0,9 l/m 25,9 km/h (4 Bft) SW45 220 0 min 1,17 klux 15,00 min 1,9 C -7,8 C
11.11.2006 08:45 3,4 C 3,0 C 92 % 1016 hPa 0,3 l/m 23,5 km/h (4 Bft) W-SW22.5 240 0 min 1,16 klux 15,00 min 2,2 C -6,6 C
11.11.2006 09:00 3,6 C 3,3 C 93 % 1016 hPa 0,3 l/m 23,8 km/h (4 Bft) W-SW45 245 0 min 1,68 klux 15,00 min 2,6 C -6,4 C
11.11.2006 09:15 3,6 C 3,3 C 93 % 1016 hPa 0,3 l/m 30,8 km/h (5 Bft) W-SW22.5 245 0 min 2,35 klux 15,00 min 2,6 C -8,6 C
11.11.2006 09:30 3,9 C 3,5 C 93 % 1016 hPa 0,6 l/m 28,4 km/h (4 Bft) W-SW22.5 250 0 min 2,83 klux 15,00 min 2,9 C -7,5 C
11.11.2006 09:45 4,0 C 3,7 C 93 % 1016 hPa 0,3 l/m 27,6 km/h (4 Bft) SW45 235 0 min 3,02 klux 15,00 min 3,0 C -7,1 C
11.11.2006 10:00 4,2 C 3,9 C 93 % 1016 hPa 0,0 l/m 31,1 km/h (5 Bft) W-SW45 255 0 min 3,14 klux 0,00 min 3,2 C -7,8 C
11.11.2006 10:15 4,3 C 4,1 C 93 % 1016 hPa 0,3 l/m 30,6 km/h (5 Bft) SW45 235 0 min 3,50 klux 15,00 min 3,3 C -7,5 C
11.11.2006 10:30 4,4 C 4,2 C 93 % 1016 hPa 0,0 l/m 30,2 km/h (5 Bft) W-SW45 245 0 min 2,52 klux 0,00 min 3,4 C -7,3 C
11.11.2006 10:46 4,5 C 4,3 C 93 % 1015 hPa 0,0 l/m 32,1 km/h (5 Bft) W-SW45 250 0 min 3,35 klux 0,00 min 3,5 C -7,6 C
11.11.2006 11:01 4,7 C 4,4 C 93 % 1016 hPa 0,0 l/m 28,8 km/h (4 Bft) W-SW22.5 250 0 min 6,03 klux 0,00 min 3,7 C -6,5 C
11.11.2006 11:15 4,8 C 4,6 C 93 % 1016 hPa 0,3 l/m 31,5 km/h (5 Bft) W-SW22.5 250 0 min 5,14 klux 14,00 min 3,8 C -7,0 C
11.11.2006 11:30 4,9 C 4,6 C 93 % 1016 hPa 0,0 l/m 31,0 km/h (5 Bft) W-SW45 245 0 min 3,98 klux 0,00 min 3,9 C -6,8 C
11.11.2006 11:45 4,9 C 4,8 C 93 % 1015 hPa 0,0 l/m 22,0 km/h (4 Bft) W-SW45 250 0 min 3,30 klux 0,00 min 3,9 C -4,1 C
11.11.2006 12:00 5,2 C 4,8 C 94 % 1015 hPa 0,0 l/m 24,8 km/h (4 Bft) W-SW45 245 0 min 2,95 klux 0,00 min 4,3 C -4,6 C
11.11.2006 12:15 5,2 C 5,0 C 94 % 1015 hPa 0,0 l/m 25,3 km/h (4 Bft) SW45 230 0 min 1,92 klux 0,00 min 4,3 C -4,8 C
11.11.2006 12:30 5,4 C 5,2 C 94 % 1015 hPa 0,3 l/m 22,9 km/h (4 Bft) W-SW67.5 255 0 min 3,34 klux 15,00 min 4,5 C -3,7 C
11.11.2006 12:45 5,6 C 5,4 C 94 % 1015 hPa 0,3 l/m 22,8 km/h (4 Bft) W-SW45 240 0 min 4,82 klux 15,00 min 4,7 C -3,4 C
11.11.2006 13:00 5,9 C 5,6 C 94 % 1015 hPa 0,0 l/m 26,5 km/h (4 Bft) W-SW67.5 245 0 min 3,76 klux 0,00 min 5,0 C -4,2 C
11.11.2006 13:15 6,0 C 5,8 C 95 % 1015 hPa 0,0 l/m 26,0 km/h (4 Bft) W-SW45 250 0 min 3,94 klux 0,00 min 5,3 C -3,9 C
11.11.2006 13:30 6,2 C 5,9 C 95 % 1015 hPa 0,3 l/m 23,5 km/h (4 Bft) W-SW67.5 250 0 min 5,25 klux 15,00 min 5,5 C -2,8 C
11.11.2006 13:45 6,4 C 6,2 C 95 % 1014 hPa 0,0 l/m 23,9 km/h (4 Bft) W-SW45 245 0 min 4,83 klux 0,00 min 5,7 C -2,7 C
11.11.2006 14:00 6,5 C 6,3 C 95 % 1015 hPa 0,0 l/m 20,4 km/h (4 Bft) W-SW22.5 255 0 min 3,47 klux 0,00 min 5,8 C -1,4 C
11.11.2006 14:15 6,6 C 6,5 C 95 % 1015 hPa 0,0 l/m 24,4 km/h (4 Bft) W-SW45 240 0 min 3,25 klux 0,00 min 5,9 C -2,6 C
11.11.2006 14:30 6,8 C 6,7 C 95 % 1015 hPa 0,0 l/m 25,0 km/h (4 Bft) W-SW45 250 0 min 3,92 klux 0,00 min 6,1 C -2,5 C
11.11.2006 14:45 7,3 C 7,1 C 95 % 1014 hPa 0,0 l/m 33,9 km/h (5 Bft) W45 270 0 min 4,12 klux 0,00 min 6,6 C -4,0 C
11.11.2006 15:00 7,6 C 7,3 C 95 % 1014 hPa 0,0 l/m 40,1 km/h (6 Bft) W22.5 260 0 min 7,71 klux 0,00 min 6,9 C -4,7 C
11.11.2006 15:15 7,7 C 7,4 C 95 % 1014 hPa 0,0 l/m 35,1 km/h (5 Bft) W45 265 0 min 6,06 klux 0,00 min 7,0 C -3,7 C
11.11.2006 15:31 7,6 C 7,3 C 94 % 1014 hPa 0,0 l/m 33,5 km/h (5 Bft) W45 275 0 min 2,27 klux 0,00 min 6,7 C -3,5 C
11.11.2006 15:46 7,6 C 7,2 C 93 % 1014 hPa 0,0 l/m 37,9 km/h (5 Bft) W67.5 275 0 min 4,38 klux 0,00 min 6,5 C -4,3 C
11.11.2006 16:00 7,5 C 7,3 C 93 % 1014 hPa 0,0 l/m 37,9 km/h (5 Bft) W45 280 0 min 2,62 klux 0,00 min 6,4 C -4,5 C
11.11.2006 16:15 7,4 C 6,8 C 92 % 1014 hPa 0,0 l/m 37,7 km/h (5 Bft) W-SW45 255 0 min 4,07 klux 0,00 min 6,2 C -4,6 C
11.11.2006 16:30 7,0 C 6,6 C 92 % 1014 hPa 0,0 l/m 37,9 km/h (5 Bft) W-SW45 255 0 min 3,47 klux 0,00 min 5,8 C -5,2 C
11.11.2006 16:45 6,7 C 6,4 C 92 % 1014 hPa 0,0 l/m 37,7 km/h (5 Bft) W45 265 0 min 1,52 klux 0,00 min 5,5 C -5,6 C
11.11.2006 17:00 6,6 C 6,4 C 92 % 1014 hPa 0,0 l/m 38,3 km/h (5 Bft) W45 275 0 min 275 lux 0,00 min 5,4 C -5,9 C
11.11.2006 17:15 6,5 C 6,3 C 91 % 1014 hPa 0,0 l/m 34,1 km/h (5 Bft) W45 265 0 min 82 lux 0,00 min 5,1 C -5,2 C
11.11.2006 17:30 6,2 C 5,9 C 91 % 1014 hPa 0,0 l/m 37,0 km/h (5 Bft) W45 275 0 min 19 lux 0,00 min 4,8 C -6,2 C
11.11.2006 17:45 6,1 C 5,8 C 91 % 1014 hPa 0,0 l/m 32,0 km/h (5 Bft) W45 265 0 min 7 lux 0,00 min 4,7 C -5,3 C
11.11.2006 18:00 6,1 C 5,9 C 92 % 1014 hPa 0,0 l/m 32,0 km/h (5 Bft) W22.5 260 0 min 0 lux 0,00 min 4,9 C -5,3 C
11.11.2006 18:15 6,2 C 6,0 C 91 % 1015 hPa 0,0 l/m 37,8 km/h (5 Bft) W22.5 260 0 min 0 lux 0,00 min 4,8 C -6,4 C
11.11.2006 18:30 6,0 C 5,9 C 90 % 1014 hPa 0,0 l/m 37,9 km/h (5 Bft) W-SW45 255 0 min 0 lux 0,00 min 4,5 C -6,7 C
11.11.2006 18:45 5,9 C 5,7 C 90 % 1015 hPa 0,0 l/m 38,3 km/h (5 Bft) W45 270 0 min 0 lux 0,00 min 4,4 C -6,9 C
11.11.2006 19:00 5,7 C 5,6 C 90 % 1014 hPa 0,0 l/m 28,3 km/h (4 Bft) W45 260 0 min 0 lux 0,00 min 4,2 C -4,9 C
11.11.2006 19:15 5,7 C 5,5 C 90 % 1014 hPa 0,0 l/m 30,5 km/h (5 Bft) W67.5 260 0 min 0 lux 0,00 min 4,2 C -5,5 C
11.11.2006 19:30 5,8 C 5,6 C 91 % 1014 hPa 0,0 l/m 36,2 km/h (5 Bft) W45 260 0 min 0 lux 0,00 min 4,4 C -6,6 C
11.11.2006 19:45 5,9 C 5,7 C 90 % 1014 hPa 0,0 l/m 38,8 km/h (5 Bft) W45 275 0 min 0 lux 0,00 min 4,4 C -7,0 C
11.11.2006 20:00 5,9 C 5,7 C 90 % 1013 hPa 0,0 l/m 41,2 km/h (6 Bft) W45 265 0 min 0 lux 0,00 min 4,4 C -7,4 C
11.11.2006 20:16 6,0 C 5,7 C 90 % 1013 hPa 0,0 l/m 35,4 km/h (5 Bft) W-SW45 255 0 min 0 lux 0,00 min 4,5 C -6,2 C
11.11.2006 20:31 5,9 C 5,6 C 90 % 1013 hPa 0,0 l/m 38,9 km/h (6 Bft) W45 275 0 min 0 lux 0,00 min 4,4 C -7,0 C
11.11.2006 20:45 5,9 C 5,5 C 90 % 1013 hPa 0,0 l/m 36,0 km/h (5 Bft) W67.5 260 0 min 0 lux 0,00 min 4,4 C -6,4 C
11.11.2006 21:00 5,9 C 5,4 C 90 % 1013 hPa 0,0 l/m 47,1 km/h (6 Bft) W22.5 265 0 min 0 lux 0,00 min 4,4 C -8,3 C
11.11.2006 21:15 5,8 C 5,3 C 89 % 1013 hPa 0,0 l/m 44,0 km/h (6 Bft) W45 280 0 min 0 lux 0,00 min 4,1 C -8,0 C
11.11.2006 21:30 5,7 C 5,3 C 88 % 1013 hPa 0,0 l/m 39,7 km/h (6 Bft) W67.5 270 0 min 0 lux 0,00 min 3,9 C -7,4 C
11.11.2006 21:45 5,6 C 5,2 C 88 % 1014 hPa 0,0 l/m 33,4 km/h (5 Bft) W45 275 0 min 0 lux 0,00 min 3,8 C -6,3 C
11.11.2006 22:00 5,6 C 5,2 C 88 % 1013 hPa 0,0 l/m 38,7 km/h (5 Bft) W45 270 0 min 0 lux 0,00 min 3,8 C -7,4 C
11.11.2006 22:15 5,4 C 5,1 C 88 % 1013 hPa 0,0 l/m 36,9 km/h (5 Bft) W22.5 275 0 min 0 lux 0,00 min 3,6 C -7,4 C
11.11.2006 22:30 5,4 C 5,2 C 88 % 1013 hPa 0,0 l/m 36,4 km/h (5 Bft) W22.5 270 0 min 0 lux 0,00 min 3,6 C -7,3 C
11.11.2006 22:45 5,3 C 5,1 C 88 % 1013 hPa 0,0 l/m 37,0 km/h (5 Bft) W45 270 0 min 0 lux 0,00 min 3,5 C -7,5 C
11.11.2006 23:00 5,3 C 5,1 C 89 % 1013 hPa 0,0 l/m 41,2 km/h (6 Bft) W22.5 265 0 min 0 lux 0,00 min 3,6 C -8,3 C
11.11.2006 23:15 5,3 C 5,1 C 89 % 1013 hPa 0,0 l/m 45,6 km/h (6 Bft) W45 270 0 min 0 lux 0,00 min 3,6 C -9,0 C
11.11.2006 23:30 5,3 C 5,1 C 89 % 1013 hPa 0,0 l/m 35,4 km/h (5 Bft) W45 275 0 min 0 lux 0,00 min 3,6 C -7,2 C
11.11.2006 23:45 5,4 C 5,1 C 89 % 1013 hPa 0,0 l/m 37,8 km/h (5 Bft) W67.5 270 0 min 0 lux 0,00 min 3,7 C -7,5 C
_ Min-Zeit 00:45 00:45 00:00 20:00 - 00:30 - - - - - 00:30 04:45
Minimum _ 1,8 C 1,0 C 85 % 1013 hPa - 5,8 km/h (2 Bft) - - - - - -0,3 C -10,2 C
_ Max-Zeit 15:15 15:15 13:15 00:00 07:30 21:00 - - 00:00 15:00 07:00 15:15 00:30
Maximum _ 7,7 C 7,4 C 95 % 1023 hPa 0,9 l/m 47,1 km/h
W (6 Bft)
- - 0 min 7,71 klux 15,00 min 7,0 C 1,9 C
Durchschnitt _ 4,6 C 4,3 C 90 % 1016 hPa #7,2 l/m 29,8 km/h (5 Bft) W-SW - #0 min. 1,27 klux #4:14 h 3,1 C -6,4 C